Wind_Speed
34 35 36 37 37 36 36 36 36 38 39 39 39 37 36 36 35 33 31 30 29 30 28 25 25 24 23 23 23 20 20 23 24 23 23 24 23 23 24 25 24 22
35 36 37 38 37 37 36 36 35 36 38 40 40 38 37 36 35 33 31 28 29 30 29 27 25 24 23 23 23 21 21 24 25 24 23 24 23 24 25 26 25 22
35 36 37 37 37 38 38 38 38 37 37 39 39 38 36 34 33 32 30 28 28 29 29 27 25 25 23 22 23 23 23 26 27 25 23 24 25 27 28 27 25 23
34 35 35 36 36 37 37 38 39 39 37 36 35 35 34 32 30 29 28 27 28 28 28 26 26 25 23 21 22 24 26 28 29 26 24 26 28 28 27 26 25 23
33 34 34 34 34 34 35 37 39 38 36 31 30 32 30 27 26 26 27 27 27 27 27 26 25 25 23 22 21 23 28 30 29 26 26 27 28 27 27 26 25 23
32 32 32 32 32 32 34 36 37 35 32 29 27 27 25 22 22 24 26 27 26 26 26 25 25 25 24 23 20 21 24 27 26 25 25 25 26 27 27 26 24 23
31 31 31 30 31 32 34 36 35 32 28 26 24 21 21 20 20 23 25 26 26 26 24 23 24 25 24 23 22 21 21 22 22 24 25 24 24 25 24 23 24 24
31 31 30 29 29 31 34 36 34 30 25 22 21 20 20 19 19 22 25 25 25 25 24 23 23 24 25 25 25 23 23 22 22 24 24 23 23 23 22 22 22 21
30 30 29 28 29 31 33 34 33 28 22 19 19 19 18 18 18 22 25 24 23 24 24 22 22 23 25 25 25 24 23 22 23 24 23 22 21 20 20 20 19 19
29 30 29 28 29 30 32 32 30 25 18 16 16 17 17 18 19 22 23 23 23 23 23 23 23 23 23 23 23 23 21 20 22 21 20 20 19 19 20 20 19 17
29 29 28 28 29 30 31 31 28 22 15 14 14 13 15 16 18 21 23 24 23 23 23 23 23 23 22 22 23 22 19 19 20 19 18 18 17 18 19 19 19 19
27 29 29 27 28 29 30 29 28 22 14 14 14 12 13 14 16 19 22 23 22 22 21 21 21 22 22 23 23 22 19 19 19 19 20 19 17 18 19 18 20 20
26 28 29 28 27 28 28 28 28 24 18 15 14 13 14 15 15 16 19 21 21 22 22 21 21 21 21 22 22 22 21 22 21 21 20 19 18 19 19 19 20 21
24 26 28 28 26 26 27 27 27 26 23 21 17 14 17 18 17 16 16 18 19 20 22 21 21 21 21 22 23 23 24 25 23 21 20 19 19 19 19 19 22 22
23 25 27 28 27 25 26 26 27 26 26 25 22 17 17 18 18 18 18 17 17 18 20 21 21 22 22 24 24 25 27 25 22 21 21 21 21 22 24 25 27 27
23 24 25 26 27 26 25 25 26 26 26 26 24 22 17 16 18 18 19 21 20 19 21 23 23 23 24 24 24 23 24 23 21 21 22 22 23 24 25 27 28 28
23 23 24 25 26 26 26 25 25 26 26 26 26 25 19 15 17 17 18 21 22 22 23 24 24 25 24 24 24 25 24 22 21 22 22 22 23 25 25 26 26 27
25 24 25 24 25 26 25 25 25 25 26 26 25 26 23 17 16 17 18 19 19 20 22 23 24 25 25 25 28 30 28 26 25 25 24 23 24 25 25 25 25 26
28 26 25 25 25 25 25 25 25 25 26 26 25 25 25 21 17 16 18 19 18 18 19 22 24 26 26 27 29 31 30 28 27 27 27 27 27 28 27 26 25 26
30 28 26 26 26 26 25 25 26 26 26 26 25 25 25 24 21 18 17 17 18 18 19 20 23 25 26 28 29 31 29 28 28 28 27 28 29 30 29 27 26 26
30 30 28 27 26 27 27 26 26 26 26 25 25 25 25 26 26 24 21 17 15 16 17 20 22 25 27 27 29 31 31 30 30 27 26 27 29 30 29 26 25 26
30 31 30 28 27 27 27 27 27 27 27 26 25 24 24 25 26 26 25 22 18 15 15 18 21 25 28 30 30 32 32 33 32 27 25 27 29 30 30 27 25 25
30 30 31 30 29 28 27 27 27 27 27 26 25 24 23 23 24 25 24 23 21 19 18 19 20 21 24 27 30 32 34 36 35 32 30 30 31 33 32 29 27 27
29 30 30 31 30 29 28 28 28 28 27 27 26 24 22 22 22 23 23 22 21 21 20 21 21 20 20 21 23 26 30 33 37 39 37 32 31 36 37 34 30 29
30 29 30 31 31 30 30 29 29 28 28 27 27 25 23 22 22 22 22 22 21 21 21 21 21 21 21 20 20 20 21 24 29 37 40 38 36 37 39 37 32 28
30 30 30 31 31 31 30 29 29 29 28 28 27 25 23 22 22 22 22 22 21 21 20 21 21 22 21 21 20 19 18 18 20 26 35 41 42 38 34 33 31 27
Wind_Direction
303 302 302 302 302 301 300 300 298 296 294 290 284 279 276 277 276 270 266 266 269 271 271 272 270 263 257 257 257 255 243 230 229 236 237 234 231 231 237 235 229 229
303 303 303 303 302 302 301 300 298 296 293 289 286 282 274 271 273 270 266 266 268 269 269 269 269 263 256 252 251 250 238 227 230 238 236 232 231 230 232 231 227 227
305 305 305 304 304 303 301 300 299 297 294 290 289 287 276 267 267 267 265 266 267 267 267 266 265 261 254 249 249 247 238 230 234 235 229 230 234 232 229 227 227 226
307 307 306 306 306 305 304 303 301 300 299 292 287 287 278 264 262 264 263 263 264 264 264 262 261 258 251 247 247 243 235 234 235 231 226 229 229 227 226 227 226 224
309 309 308 307 308 308 307 306 304 302 300 292 284 281 272 260 261 262 260 261 263 263 260 258 258 255 249 246 247 241 234 232 229 224 224 225 222 222 225 226 224 221
311 310 309 309 310 310 309 307 305 302 297 288 281 275 265 261 266 263 259 261 264 261 257 256 254 251 248 244 242 239 231 223 219 219 221 222 220 222 223 222 220 218
313 310 310 312 314 312 311 309 307 306 298 281 271 266 263 265 267 262 259 261 263 259 254 252 249 245 245 241 236 235 228 220 220 223 222 219 218 219 220 220 220 219
313 311 312 316 316 314 315 314 309 307 299 278 261 256 261 266 263 261 260 260 262 258 250 247 244 241 241 240 237 235 229 226 227 225 219 216 217 218 221 224 225 223
313 312 314 317 317 318 320 320 315 308 297 276 257 247 254 262 261 259 259 257 259 255 247 245 244 241 240 239 235 230 224 222 224 223 219 217 218 219 223 228 228 225
314 313 316 319 320 321 323 324 323 316 298 274 253 242 248 257 256 253 255 256 256 253 248 246 244 240 239 238 235 229 222 218 219 218 214 213 217 224 227 228 229 230
315 315 318 322 323 324 327 329 330 326 305 277 263 252 249 249 248 249 250 250 251 250 246 241 238 238 241 240 236 232 225 221 221 220 218 218 224 231 231 233 240 244
314 314 318 324 325 326 330 331 334 334 316 288 278 266 253 246 244 248 249 247 248 247 240 235 236 241 243 240 237 234 225 215 214 218 224 226 227 231 237 243 249 248
314 314 316 322 326 328 331 333 334 335 329 316 295 267 256 254 248 246 246 244 245 243 238 235 238 241 241 238 239 238 231 221 218 219 226 231 233 238 244 246 247 249
315 315 316 320 325 328 330 332 334 332 331 332 321 281 261 259 256 253 248 240 236 236 235 235 237 240 241 239 240 242 238 232 230 231 234 238 239 241 243 241 244 251
315 316 317 319 323 327 329 331 332 330 328 332 333 311 280 265 259 256 253 246 236 233 236 238 242 246 245 242 243 243 237 230 232 240 241 240 240 239 239 242 247 251
312 314 316 319 321 324 327 328 328 329 328 328 330 324 301 273 265 260 254 251 246 240 241 243 247 250 248 247 245 235 227 228 236 242 242 240 241 241 241 244 248 250
308 310 312 316 318 320 323 325 324 326 326 325 325 325 314 286 272 270 262 257 253 249 246 246 250 252 252 250 238 223 224 238 244 243 243 243 243 243 244 247 252 255
304 306 307 310 312 314 317 320 322 322 323 323 322 324 322 306 284 278 275 270 264 258 251 246 247 250 252 250 239 229 235 246 248 246 247 245 244 245 247 251 255 259
301 303 304 306 306 309 312 315 318 319 320 321 320 320 322 318 301 287 283 279 274 268 257 247 244 247 250 248 242 238 242 248 250 249 248 246 247 247 248 252 256 258
298 300 302 304 303 305 307 309 312 315 317 319 319 318 319 317 312 305 299 287 275 271 266 256 250 251 253 250 244 243 246 250 251 250 251 252 251 250 251 256 260 259
297 299 300 302 302 302 303 305 307 309 312 315 317 318 318 315 313 313 315 311 295 281 274 265 257 255 256 254 249 247 251 253 252 251 251 251 250 249 249 252 256 259
294 296 298 299 300 300 301 302 303 304 307 310 313 315 316 315 315 313 314 317 317 310 295 279 268 261 258 257 254 251 253 253 249 245 243 243 243 245 245 246 251 255
292 293 295 297 298 298 298 299 300 301 303 305 308 310 311 313 315 316 317 317 318 317 311 301 293 282 271 266 263 260 259 257 252 244 240 241 243 244 244 245 248 251
291 292 293 294 295 296 296 296 297 298 299 301 303 306 307 309 311 313 316 318 317 316 313 309 307 303 296 289 283 275 270 268 262 253 244 239 241 243 241 241 246 250
291 292 292 293 294 294 294 294 293 294 295 296 298 301 303 305 306 307 310 313 314 314 312 310 308 306 304 302 300 294 285 280 273 264 252 243 241 243 243 245 249 248
291 292 292 292 292 292 292 292 291 291 290 291 293 296 299 301 302 304 306 306 307 308 308 308 307 306 304 302 301 302 300 294 288 278 267 257 252 250 249 250 251 248
Height
5784 5782 5781 5779 5778 5776 5774 5773 5771 5769 5767 5767 5765 5763 5762 5762 5763 5764 5765 5765 5765 5766 5766 5766 5766 5766 5766 5768 5769 5769 5769 5770 5771 5771 5772 5772 5773 5775 5776 5777 5778 5779
5781 5779 5777 5775 5774 5772 5770 5769 5767 5765 5763 5761 5759 5758 5757 5757 5759 5760 5762 5762 5762 5762 5763 5763 5763 5763 5763 5764 5766 5766 5767 5768 5768 5769 5769 5770 5771 5773 5774 5776 5777 5778
5778 5776 5774 5772 5770 5768 5766 5765 5763 5761 5759 5756 5755 5755 5754 5753 5754 5756 5759 5759 5759 5759 5760 5760 5760 5760 5760 5761 5762 5763 5764 5764 5765 5766 5767 5768 5769 5770 5772 5774 5775 5776
5775 5773 5771 5768 5766 5764 5762 5760 5758 5756 5754 5752 5751 5752 5751 5749 5750 5752 5755 5756 5756 5757 5757 5757 5757 5757 5758 5758 5759 5760 5760 5761 5762 5763 5763 5765 5767 5767 5769 5771 5773 5774
5773 5770 5768 5766 5763 5761 5759 5756 5754 5751 5749 5748 5747 5747 5747 5746 5747 5749 5751 5752 5753 5754 5754 5754 5754 5755 5755 5756 5756 5756 5757 5758 5759 5759 5759 5761 5763 5765 5766 5768 5770 5771
5770 5768 5765 5763 5761 5758 5756 5753 5750 5747 5744 5743 5743 5743 5744 5744 5745 5746 5748 5749 5750 5750 5751 5751 5752 5753 5753 5754 5754 5753 5753 5754 5755 5756 5757 5759 5760 5762 5764 5765 5767 5768
5768 5765 5763 5761 5758 5755 5752 5749 5746 5742 5739 5738 5739 5740 5741 5742 5743 5744 5745 5747 5748 5748 5748 5749 5750 5751 5751 5751 5751 5751 5752 5752 5753 5754 5755 5756 5758 5759 5761 5763 5765 5766
5765 5763 5761 5758 5756 5753 5749 5746 5743 5739 5736 5734 5735 5737 5738 5740 5741 5742 5743 5744 5745 5745 5746 5746 5747 5748 5749 5748 5749 5749 5750 5751 5752 5752 5752 5754 5756 5757 5759 5761 5763 5765
5763 5760 5759 5756 5754 5751 5747 5744 5740 5736 5733 5732 5732 5734 5736 5738 5739 5739 5740 5742 5743 5743 5743 5744 5745 5746 5746 5746 5747 5747 5748 5749 5749 5750 5751 5752 5754 5756 5758 5760 5762 5764
5761 5758 5756 5754 5752 5749 5746 5742 5739 5735 5731 5730 5731 5731 5734 5736 5737 5737 5737 5739 5741 5741 5741 5742 5742 5743 5744 5745 5745 5746 5746 5747 5748 5749 5749 5750 5752 5754 5756 5759 5761 5762
5758 5756 5754 5752 5750 5747 5745 5742 5738 5734 5731 5731 5730 5729 5730 5732 5734 5735 5735 5736 5737 5738 5739 5739 5740 5741 5741 5743 5744 5744 5745 5746 5747 5748 5748 5749 5752 5753 5754 5756 5758 5759
5756 5754 5752 5751 5748 5745 5743 5741 5738 5734 5732 5731 5730 5729 5729 5729 5730 5732 5732 5732 5734 5735 5736 5738 5738 5739 5739 5740 5742 5742 5743 5745 5746 5746 5747 5749 5752 5752 5753 5755 5756 5756
5755 5752 5750 5749 5747 5744 5742 5740 5737 5735 5732 5730 5729 5729 5729 5729 5729 5729 5729 5729 5731 5733 5734 5736 5736 5736 5737 5738 5739 5740 5741 5742 5743 5745 5747 5749 5751 5751 5753 5755 5754 5755
5753 5751 5749 5747 5746 5743 5741 5739 5737 5734 5732 5730 5729 5728 5728 5728 5728 5728 5727 5727 5729 5730 5731 5733 5733 5733 5735 5736 5737 5739 5740 5740 5741 5743 5745 5747 5749 5751 5753 5754 5753 5753
5751 5750 5747 5745 5743 5742 5740 5738 5736 5734 5731 5730 5729 5728 5726 5726 5727 5727 5727 5727 5728 5729 5729 5730 5731 5732 5733 5734 5735 5737 5737 5737 5739 5741 5742 5745 5747 5750 5752 5753 5751 5750
5749 5748 5746 5744 5741 5740 5738 5737 5735 5733 5731 5730 5729 5727 5726 5725 5725 5725 5726 5726 5726 5727 5727 5728 5729 5730 5731 5732 5733 5734 5734 5735 5737 5738 5739 5742 5744 5746 5749 5750 5748 5748
5747 5746 5744 5742 5740 5738 5736 5735 5733 5732 5730 5729 5728 5727 5725 5725 5724 5724 5724 5724 5724 5725 5725 5726 5727 5728 5728 5729 5730 5731 5731 5732 5734 5735 5736 5739 5740 5742 5744 5745 5744 5744
5745 5744 5743 5741 5739 5737 5735 5733 5732 5731 5729 5728 5727 5726 5725 5724 5723 5722 5722 5721 5722 5722 5723 5724 5725 5725 5725 5727 5727 5728 5729 5730 5732 5733 5734 5735 5736 5737 5739 5740 5740 5740
5742 5742 5741 5739 5737 5736 5734 5732 5731 5729 5728 5727 5726 5725 5724 5722 5722 5721 5721 5720 5720 5720 5720 5721 5722 5722 5723 5724 5725 5726 5727 5728 5729 5730 5731 5732 5733 5733 5734 5735 5736 5737
5739 5738 5738 5737 5735 5734 5732 5731 5729 5728 5726 5725 5724 5723 5722 5721 5720 5720 5719 5718 5718 5718 5719 5719 5720 5720 5721 5721 5722 5723 5724 5726 5726 5727 5728 5729 5730 5730 5731 5732 5733 5733
5736 5735 5735 5734 5733 5732 5731 5729 5727 5726 5725 5724 5723 5722 5721 5720 5719 5718 5718 5717 5717 5717 5717 5717 5717 5717 5718 5718 5719 5721 5722 5723 5723 5723 5724 5725 5725 5726 5727 5729 5729 5730
5734 5733 5732 5731 5731 5730 5729 5727 5726 5724 5723 5722 5721 5720 5719 5718 5717 5717 5716 5716 5716 5715 5716 5715 5715 5715 5715 5716 5717 5718 5719 5719 5718 5718 5719 5719 5719 5720 5722 5724 5725 5727
5732 5730 5729 5728 5728 5727 5727 5725 5724 5723 5721 5720 5719 5719 5718 5717 5716 5715 5714 5714 5714 5714 5714 5713 5713 5713 5713 5713 5714 5714 5715 5715 5715 5714 5715 5715 5716 5717 5719 5720 5721 5722
5729 5728 5727 5726 5725 5725 5724 5723 5722 5721 5719 5718 5717 5716 5716 5716 5715 5714 5713 5713 5712 5712 5712 5711 5711 5710 5710 5710 5710 5710 5710 5710 5710 5711 5712 5713 5713 5712 5713 5715 5716 5717
5726 5726 5724 5723 5722 5722 5721 5721 5720 5719 5717 5716 5715 5714 5713 5713 5713 5712 5711 5711 5710 5710 5710 5709 5708 5708 5708 5707 5707 5707 5706 5706 5706 5706 5708 5708 5707 5707 5708 5710 5712 5713
5723 5722 5721 5721 5720 5719 5718 5718 5717 5716 5715 5713 5712 5711 5711 5710 5710 5710 5709 5709 5709 5708 5708 5707 5706 5705 5705 5704 5704 5703 5703 5702 5702 5702 5703 5703 5703 5705 5705 5706 5707 5708